Погода в Джорджтауне

Каймановы острова     19°17′39″N   81°22′43″W
темп.,
°C
ветер,
м/с
пор.,
м/с
влажн.,
%
обл.,
%
осадки,
мм/ч
давл.,
гПа
погр.,
м
9 августа, вт
вт901:00+29в567746 1.2 1014660
04:00+29в567435 0.1 1013748
07:00+29всв657462 0.7 1014688
10:00+29в89805 0.3 1016816
13:00+29в897851 1.3 1015839
16:00+29в787836 0.5 1014909
19:00+29вюв7880100 3.2 1015689
22:00+29в6679100 0.1 1016676
10 августа, ср
ср1001:00+28в458284 0.5 1015441
04:00+29в7878100 0.1 1015865
07:00+29всв7778100 0.1 1016841
10:00+28всв7781100 0.3 1017721
13:00+29всв8881100 0.4 1017779
16:00+29всв777850 0.1 1015798
19:00+29всв778069 0.1 1015758
22:00+28всв56765 0.0 1016642
11 августа, чт
чт1101:00+29всв58741 0.1 1015694
04:00+29всв677484 0.0 1014982
07:00+28всв89752 0.1 10141000
10:00+28всв88736 0.2 10161016
13:00+29всв88738 0.2 10151045
16:00+28всв78765 0.8 1013893
19:00+28всв66745 1.1 1014866
22:00+28в55756 0.3 1015683
12 августа, пт
пт1201:00+28в55732 0.6 1014835
04:00+28в44720 0.0 1013836
07:00+28в45746 0.0 1014878
10:00+28в567510 0.1 1015874
13:00+29в54735 0.1 1014884
16:00+29в44721 0.0 1013867
19:00+29вюв33720 0.0 1014798
22:00+28вюв337280 0.0 1015651
13 августа, сб
сб1301:00+28всв3474100 0.0 1014607
04:00+28всв447631 0.0 1013779
07:00+28всв447668 1.8 1014555
10:00+28в457431 0.0 1015742
13:00+29в457489 0.0 1015860
16:00+29в457289 1.4 1014882
19:00+29в5574100 1.7 1014854
22:00+29вюв447399 0.0 1015780